Dewpoint
52 51 49 48 48 48 47 47 47 46 46 46 46 46 47 47 48 46 47 46 46 46 45 45 44 43 42 42 41 40 41 40 40 39 39 40 37 37 36 37 37 38
51 51 50 49 49 48 47 47 47 46 46 46 46 46 47 46 46 46 46 45 45 44 44 44 43 42 41 40 40 39 39 39 39 41 38 38 38 37 37 37 36 37
51 50 48 48 47 47 47 47 47 47 46 46 46 46 46 46 45 45 45 45 44 44 44 44 43 42 41 40 40 39 39 39 39 39 40 39 39 38 39 38 37 36
50 49 48 47 47 46 47 47 46 46 46 45 45 46 46 46 45 45 46 46 44 44 44 43 42 41 40 39 39 39 39 39 39 39 39 40 40 39 39 38 38 36
49 48 47 47 47 47 47 46 45 45 45 45 45 46 46 44 44 43 44 43 43 43 43 42 42 41 41 40 40 39 40 39 39 39 38 39 40 39 39 38 37 36
49 48 47 46 46 46 46 45 45 45 44 44 44 45 43 43 43 43 43 43 43 42 42 42 41 41 41 40 40 40 40 39 39 38 38 38 39 39 39 38 36 36
47 47 47 46 46 46 45 45 45 44 43 43 43 43 43 43 43 43 43 43 42 43 41 41 41 41 41 41 40 40 40 40 39 39 38 39 40 39 39 38 37 36
46 46 46 46 45 45 44 43 43 42 43 42 42 43 42 42 42 43 42 42 42 41 41 41 41 40 40 40 40 40 40 40 39 38 38 38 38 37 38 38 37 35
46 45 45 45 44 43 42 42 42 42 42 41 41 41 42 41 41 41 41 41 41 41 41 40 40 40 40 40 40 39 38 39 39 38 38 37 37 36 36 37 36 37
45 45 44 44 43 42 41 41 41 41 42 41 41 41 41 42 41 40 41 41 41 40 40 40 40 40 39 39 38 38 38 38 38 38 38 37 37 36 35 35 34 34
44 44 43 43 42 41 41 41 40 41 41 40 40 40 40 40 41 40 40 39 40 39 39 39 39 39 39 39 39 39 38 38 38 38 38 37 37 38 40 36 37 33
43 43 42 41 41 40 40 40 40 40 40 41 40 39 39 39 39 39 40 38 38 38 38 38 39 39 39 39 39 39 39 39 39 39 39 39 39 38 37 38 36 35
42 42 41 41 40 40 40 39 39 39 39 39 40 39 39 38 38 38 39 37 37 38 38 38 38 38 39 39 39 39 38 38 38 38 38 39 38 38 38 37 37 36
42 42 41 40 40 39 39 38 38 38 39 40 39 38 38 37 37 37 38 37 37 37 38 39 37 37 38 39 39 39 39 37 37 38 37 37 38 38 39 38 38 38
42 42 41 41 39 38 38 38 38 38 38 38 39 38 39 37 37 37 36 36 37 37 37 38 38 38 38 38 39 38 38 38 38 37 36 36 37 37 38 39 40 40
42 42 40 39 38 38 37 37 37 37 37 36 36 36 36 37 36 36 36 36 36 36 37 38 38 40 42 41 40 39 38 38 38 37 37 37 38 38 37 38 37 38
42 40 39 38 38 37 37 36 36 36 35 35 35 35 35 37 35 34 35 35 35 35 36 37 37 39 39 39 39 40 39 39 38 39 38 38 37 36 35 37 36 36
41 40 38 38 37 37 36 36 36 35 34 34 34 35 36 35 34 33 34 34 35 35 36 37 38 39 37 38 39 39 40 40 39 39 39 38 37 37 38 38 36 37
41 39 39 38 37 37 36 35 34 34 34 34 34 35 34 33 33 33 33 34 34 34 36 38 37 38 38 39 39 39 39 39 39 39 38 37 37 37 37 37 38 38
40 40 39 38 37 36 35 34 34 34 34 34 35 34 32 32 32 32 32 33 34 35 35 35 36 39 38 38 38 37 37 38 37 38 38 37 37 37 37 37 37 37
40 40 39 38 37 36 35 34 34 34 34 34 33 31 31 31 31 31 32 36 35 34 35 35 37 37 37 37 37 37 36 37 37 38 37 37 38 37 37 37 36 36
40 40 39 38 37 35 35 34 34 34 34 33 33 31 32 32 32 33 34 32 33 34 34 34 36 36 36 36 36 36 37 38 36 36 36 37 37 37 37 37 37 36
41 40 39 38 36 35 35 34 34 34 33 33 31 31 30 30 31 32 33 32 33 33 33 33 35 36 36 36 36 36 36 35 36 36 35 35 35 35 35 36 36 39
41 40 39 38 36 35 35 35 34 33 32 33 30 30 30 30 31 31 31 33 33 32 33 33 34 36 36 36 35 36 36 34 34 34 34 34 33 34 35 35 36 38
42 41 39 38 37 36 36 35 33 32 33 32 31 30 30 32 35 30 31 32 31 32 37 33 34 36 36 35 36 35 37 34 33 32 32 32 32 31 35 34 33 36
41 41 40 38 37 37 36 34 34 33 32 31 31 30 31 32 33 31 30 31 33 37 37 33 33 35 37 36 36 35 35 35 32 31 32 31 33 36 31 33 33 33